Weather in Klintsy

Russia / Kaluga Oblast     53°48′11″N   35°13′50″E
temp.,
°C
wind,
m/s
gust,
m/s
humid.,
%
clouds,
%
prec.,
mm/h
press.,
hPa
HPBL,
m
28 june, tue
tue2800:00+20nnw11905 0.0 102011
03:00+19nnw22915 0.0 102021
06:00+21nnw138713 0.0 102090
09:00+25nne246870 0.0 1019362
12:00+29nne4545100 0.0 10191427
15:00+29nne44475 0.0 10191687
18:00+27ene34596 0.0 1019984
21:00+20e289364 0.3 1020209
29 june, wed
wed2900:00+17e2891100 0.0 1021173
03:00+14ene268878 0.0 1022147
06:00+14e257568 0.0 1022148
09:00+19e3550100 0.0 1021478
12:00+22ene3343100 0.0 10221001
15:00+23ene3343100 0.0 10211234
18:00+21e2459100 0.0 1020458
21:00+16ene22810 0.0 102012
30 june, thu
thu3000:00+13e24880 0.0 102165
03:00+12ene22900 0.0 102130
06:00+13ene24829 0.0 1022126
09:00+20ene23565 0.0 1021622
12:00+23nne33404 0.0 10211667
15:00+24nne34420 0.0 10211713
18:00+23nne24495 0.0 10201422
21:00+17ne00710 0.0 102011
1 july, fri
fri100:00+15nw11760 0.0 102111
03:00+13n11845 0.0 102210
06:00+14n12785 0.0 102361
09:00+21nne23530 0.0 1022481
12:00+25nne34420 0.0 10221549
15:00+25nne34422 0.0 10221758
18:00+24ne1255100 0.0 1021826
21:00+18ssw0073100 0.0 102211
2 july, sat
sat200:00+16sw2277100 0.0 102215
03:00+15wsw228495 0.0 102225
06:00+16wnw1487100 0.0 1022103
09:00+23nw2364100 0.0 1021488
12:00+27nw334833 0.0 10201839
15:00+28nnw4440100 0.0 10192219
18:00+26wnw245714 0.0 1019973
21:00+18n2895100 1.1 1020192